Time,TemperatureF,DewpointF,PressureIn,WindDirection,WindDirectionDegrees,WindSpeedMPH,WindSpeedGustMPH,Humidity,HourlyPrecipIn,Conditions,Clouds,dailyrainin,SoftwareType,DateUTC
2013-04-02 02:00:00,48.5,47.7,30.21,NNE,27,0.0,3.0,97,0.00,,,0.00,Wunderground v.1.15,2013-04-02 09:00:00,
2013-04-02 08:25:00,48.5,48.0,30.21,SSW,201,0.0,3.0,98,0.00,,,0.00,Wunderground v.1.15,2013-04-02 15:25:00,
2013-04-02 08:30:00,48.3,47.5,30.21,South,181,0.0,3.0,97,0.00,,,0.00,Wunderground v.1.15,2013-04-02 15:30:00,
2013-04-02 08:40:00,48.6,47.8,30.21,SSE,152,0.0,3.0,97,0.00,,,0.00,Wunderground v.1.15,2013-04-02 15:40:00,
2013-04-02 08:45:00,48.5,47.7,30.21,SSW,193,0.0,3.0,97,0.00,,,0.00,Wunderground v.1.15,2013-04-02 15:45:00,
2013-04-02 08:50:00,48.5,47.7,30.21,South,170,0.0,3.0,97,0.00,,,0.00,Wunderground v.1.15,2013-04-02 15:50:00,
2013-04-02 09:00:00,48.6,47.8,30.21,NE,51,1.0,1.0,97,0.00,,,0.00,Wunderground v.1.15,2013-04-02 16:00:00,
2013-04-02 09:05:00,48.8,48.0,30.21,NE,52,0.0,3.0,97,0.00,,,0.00,Wunderground v.1.15,2013-04-02 16:05:00,
2013-04-02 09:10:00,48.9,48.1,30.21,South,181,0.0,3.0,97,0.00,,,0.00,Wunderground v.1.15,2013-04-02 16:10:00,
2013-04-02 09:15:00,48.9,47.8,30.21,South,181,0.0,3.0,96,0.00,,,0.00,Wunderground v.1.15,2013-04-02 16:15:00,
2013-04-02 09:25:00,49.1,48.0,30.21,SW,235,0.0,3.0,96,0.00,,,0.00,Wunderground v.1.15,2013-04-02 16:25:00,
2013-04-02 09:30:00,49.2,48.1,30.21,West,260,0.0,3.0,96,0.00,,,0.00,Wunderground v.1.15,2013-04-02 16:30:00,
2013-04-02 09:35:00,49.6,48.5,30.21,SE,129,0.0,3.0,96,0.00,,,0.00,Wunderground v.1.15,2013-04-02 16:35:00,
2013-04-02 09:45:00,50.0,48.6,30.21,North,4,1.0,3.0,95,0.00,,,0.00,Wunderground v.1.15,2013-04-02 16:45:00,
2013-04-02 09:50:00,50.1,48.7,30.21,WNW,300,0.0,3.0,95,0.00,,,0.00,Wunderground v.1.15,2013-04-02 16:50:00,
2013-04-02 09:55:00,50.4,49.0,30.21,West,265,0.0,3.0,95,0.00,,,0.00,Wunderground v.1.15,2013-04-02 16:55:00,
2013-04-02 10:05:00,50.8,49.1,30.21,West,276,1.0,3.0,94,0.00,,,0.00,Wunderground v.1.15,2013-04-02 17:05:00,
2013-04-02 10:10:00,51.0,49.3,30.21,SSW,206,1.0,3.0,94,0.00,,,0.00,Wunderground v.1.15,2013-04-02 17:10:00,
2013-04-02 10:15:00,51.2,49.2,30.22,WSW,249,0.0,3.0,93,0.00,,,0.00,Wunderground v.1.15,2013-04-02 17:15:00,
2013-04-02 10:25:00,51.9,49.6,30.22,WNW,287,1.0,3.0,92,0.00,,,0.00,Wunderground v.1.15,2013-04-02 17:25:00,
2013-04-02 10:30:00,52.3,49.8,30.22,WNW,284,1.0,1.0,91,0.00,,,0.00,Wunderground v.1.15,2013-04-02 17:30:00,
2013-04-02 10:35:00,52.5,50.2,30.22,WNW,288,1.0,2.0,92,0.00,,,0.00,Wunderground v.1.15,2013-04-02 17:35:00,
2013-04-02 10:45:00,52.6,50.3,30.22,ENE,61,1.0,3.0,92,0.00,,,0.00,Wunderground v.1.15,2013-04-02 17:45:00,
2013-04-02 10:50:00,52.8,50.2,30.22,North,4,1.0,3.0,91,0.00,,,0.00,Wunderground v.1.15,2013-04-02 17:50:00,
2013-04-02 10:55:00,53.0,50.4,30.22,ENE,66,2.0,3.0,91,0.00,,,0.00,Wunderground v.1.15,2013-04-02 17:55:00,
2013-04-02 11:05:00,53.1,50.2,30.23,WNW,290,1.0,3.0,90,0.00,,,0.00,Wunderground v.1.15,2013-04-02 18:05:00,
2013-04-02 11:10:00,53.2,50.3,30.23,North,350,0.0,3.0,90,0.00,,,0.00,Wunderground v.1.15,2013-04-02 18:10:00,
2013-04-02 11:20:00,53.5,50.3,30.22,West,278,1.0,1.0,89,0.00,,,0.00,Wunderground v.1.15,2013-04-02 18:20:00,
2013-04-02 11:25:00,53.5,50.3,30.22,SW,221,0.0,3.0,89,0.00,,,0.00,Wunderground v.1.15,2013-04-02 18:25:00,
2013-04-02 11:35:00,53.6,50.4,30.22,SE,137,1.0,3.0,89,0.00,,,0.00,Wunderground v.1.15,2013-04-02 18:35:00,
2013-04-02 11:40:00,53.8,50.3,30.22,NNE,31,1.0,3.0,88,0.00,,,0.00,Wunderground v.1.15,2013-04-02 18:40:00,
2013-04-02 11:45:00,53.8,50.6,30.22,NE,42,1.0,3.0,89,0.00,,,0.00,Wunderground v.1.15,2013-04-02 18:45:00,
2013-04-02 11:50:00,53.9,50.7,30.22,NE,35,1.0,3.0,89,0.00,,,0.00,Wunderground v.1.15,2013-04-02 18:50:00,
2013-04-02 12:00:00,54.5,51.0,30.22,North,4,2.0,4.0,88,0.00,,,0.00,Wunderground v.1.15,2013-04-02 19:00:00,
2013-04-02 12:10:00,54.6,51.1,30.22,NE,34,2.0,4.0,88,0.00,,,0.00,Wunderground v.1.15,2013-04-02 19:10:00,
2013-04-02 12:15:00,54.8,51.3,30.22,SSW,203,2.0,4.0,88,0.00,,,0.00,Wunderground v.1.15,2013-04-02 19:15:00,
2013-04-02 12:20:00,55.2,51.4,30.22,WNW,301,1.0,1.0,87,0.00,,,0.00,Wunderground v.1.15,2013-04-02 19:20:00,
2013-04-02 12:30:00,55.0,50.9,30.22,NNE,22,3.0,4.0,86,0.00,,,0.00,Wunderground v.1.15,2013-04-02 19:30:00,
2013-04-02 12:35:00,54.7,50.9,30.22,ENE,66,2.0,4.0,87,0.00,,,0.00,Wunderground v.1.15,2013-04-02 19:35:00,
2013-04-02 12:40:00,55.1,51.0,30.22,WSW,247,1.0,1.0,86,0.00,,,0.00,Wunderground v.1.15,2013-04-02 19:40:00,
2013-04-02 12:50:00,56.0,51.2,30.21,West,274,1.0,2.0,84,0.00,,,0.00,Wunderground v.1.15,2013-04-02 19:50:00,
2013-04-02 12:55:00,56.4,51.9,30.22,NW,324,2.0,2.0,85,0.00,,,0.00,Wunderground v.1.15,2013-04-02 19:55:00,
2013-04-02 13:00:00,56.7,51.9,30.21,NE,49,2.0,2.0,84,0.00,,,0.00,Wunderground v.1.15,2013-04-02 20:00:00,
2013-04-02 13:05:00,57.4,52.6,30.21,SW,234,2.0,6.0,84,0.00,,,0.00,Wunderground v.1.15,2013-04-02 20:05:00,
2013-04-02 13:15:00,58.5,53.4,30.21,WNW,287,1.0,6.0,83,0.00,,,0.00,Wunderground v.1.15,2013-04-02 20:15:00,
2013-04-02 13:20:00,58.9,53.7,30.21,WNW,289,1.0,6.0,83,0.00,,,0.00,Wunderground v.1.15,2013-04-02 20:20:00,
2013-04-02 13:25:00,59.5,54.0,30.20,ENE,60,2.0,6.0,82,0.00,,,0.00,Wunderground v.1.15,2013-04-02 20:25:00,
2013-04-02 13:30:00,59.4,52.9,30.20,NNE,30,3.0,3.0,79,0.00,,,0.00,Wunderground v.1.15,2013-04-02 20:30:00,
2013-04-02 13:40:00,59.5,52.6,30.20,NNE,19,2.0,6.0,78,0.00,,,0.00,Wunderground v.1.15,2013-04-02 20:40:00,
2013-04-02 13:45:00,60.3,53.8,30.20,West,278,2.0,6.0,79,0.00,,,0.00,Wunderground v.1.15,2013-04-02 20:45:00,
2013-04-02 13:55:00,61.8,54.5,30.19,NNE,21,1.0,4.0,77,0.00,,,0.00,Wunderground v.1.15,2013-04-02 20:55:00,
2013-04-02 14:00:00,61.8,53.8,30.19,NE,39,3.0,6.0,75,0.00,,,0.00,Wunderground v.1.15,2013-04-02 21:00:00,
2013-04-02 14:05:00,61.6,53.6,30.19,East,93,4.0,6.0,75,0.00,,,0.00,Wunderground v.1.15,2013-04-02 21:05:00,
2013-04-02 14:15:00,62.5,54.5,30.18,ENE,68,2.0,6.0,75,0.00,,,0.00,Wunderground v.1.15,2013-04-02 21:15:00,
2013-04-02 14:20:00,62.7,54.7,30.18,WSW,238,3.0,3.0,75,0.00,,,0.00,Wunderground v.1.15,2013-04-02 21:20:00,
2013-04-02 14:25:00,62.8,54.4,30.18,WSW,256,3.0,6.0,74,0.00,,,0.00,Wunderground v.1.15,2013-04-02 21:25:00,
2013-04-02 14:30:00,62.6,54.2,30.18,NE,40,2.0,6.0,74,0.00,,,0.00,Wunderground v.1.15,2013-04-02 21:30:00,
2013-04-02 14:40:00,63.2,54.4,30.17,WSW,239,2.0,2.0,73,0.00,,,0.00,Wunderground v.1.15,2013-04-02 21:40:00,
2013-04-02 14:45:00,63.2,54.0,30.17,WNW,297,2.0,6.0,72,0.00,,,0.00,Wunderground v.1.15,2013-04-02 21:45:00,
2013-04-02 14:50:00,63.7,54.9,30.17,West,260,1.0,6.0,73,0.00,,,0.00,Wunderground v.1.15,2013-04-02 21:50:00,
2013-04-02 14:55:00,64.2,53.8,30.17,North,4,2.0,6.0,69,0.00,,,0.00,Wunderground v.1.15,2013-04-02 21:55:00,
2013-04-02 15:05:00,64.3,53.9,30.17,NE,43,3.0,7.0,69,0.00,,,0.00,Wunderground v.1.15,2013-04-02 22:05:00,
2013-04-02 15:10:00,63.8,53.0,30.17,WNW,287,4.0,4.0,68,0.00,,,0.00,Wunderground v.1.15,2013-04-02 22:10:00,
2013-04-02 15:20:00,63.8,52.2,30.16,NNW,332,3.0,3.0,66,0.00,,,0.00,Wunderground v.1.15,2013-04-02 22:20:00,
2013-04-02 15:25:00,63.8,52.2,30.16,NE,47,3.0,7.0,66,0.00,,,0.00,Wunderground v.1.15,2013-04-02 22:25:00,
2013-04-02 15:30:00,63.8,51.4,30.16,West,274,4.0,4.0,64,0.00,,,0.00,Wunderground v.1.15,2013-04-02 22:30:00,
2013-04-02 15:35:00,64.0,52.8,30.16,NE,36,4.0,6.0,67,0.00,,,0.00,Wunderground v.1.15,2013-04-02 22:35:00,
2013-04-02 15:45:00,64.2,52.2,30.15,NE,55,3.0,5.0,65,0.00,,,0.00,Wunderground v.1.15,2013-04-02 22:45:00,
2013-04-02 15:50:00,64.2,52.2,30.15,NE,35,3.0,6.0,65,0.00,,,0.00,Wunderground v.1.15,2013-04-02 22:50:00,
2013-04-02 15:55:00,64.4,52.8,30.15,West,272,4.0,6.0,66,0.00,,,0.00,Wunderground v.1.15,2013-04-02 22:55:00,
2013-04-02 16:05:00,64.7,53.5,30.15,NE,37,3.0,6.0,67,0.00,,,0.00,Wunderground v.1.15,2013-04-02 23:05:00,
2013-04-02 16:15:00,64.2,53.0,30.15,East,79,4.0,6.0,67,0.00,,,0.00,Wunderground v.1.15,2013-04-02 23:15:00,
2013-04-02 16:20:00,63.9,53.1,30.15,West,264,3.0,6.0,68,0.00,,,0.00,Wunderground v.1.15,2013-04-02 23:20:00,
2013-04-02 16:25:00,63.7,52.5,30.15,SW,226,3.0,6.0,67,0.00,,,0.00,Wunderground v.1.15,2013-04-02 23:25:00,
2013-04-02 16:35:00,63.6,51.6,30.15,SW,233,3.0,6.0,65,0.00,,,0.00,Wunderground v.1.15,2013-04-02 23:35:00,
2013-04-02 16:40:00,63.4,51.4,30.15,ENE,67,3.0,6.0,65,0.00,,,0.00,Wunderground v.1.15,2013-04-02 23:40:00,
2013-04-02 16:45:00,63.1,51.1,30.15,North,4,4.0,6.0,65,0.00,,,0.00,Wunderground v.1.15,2013-04-02 23:45:00,
2013-04-02 16:55:00,62.4,51.3,30.15,SW,220,4.0,6.0,67,0.00,,,0.00,Wunderground v.1.15,2013-04-02 23:55:00,
2013-04-02 17:00:00,62.5,51.4,30.15,ENE,60,3.0,3.0,67,0.00,,,0.00,Wunderground v.1.15,2013-04-03 00:00:00,
2013-04-02 17:10:00,62.0,51.3,30.14,East,81,3.0,3.0,68,0.00,,,0.00,Wunderground v.1.15,2013-04-03 00:10:00,
2013-04-02 17:15:00,61.8,51.1,30.14,West,274,3.0,6.0,68,0.00,,,0.00,Wunderground v.1.15,2013-04-03 00:15:00,
2013-04-02 17:20:00,62.0,51.7,30.14,ENE,66,2.0,6.0,69,0.00,,,0.00,Wunderground v.1.15,2013-04-03 00:20:00,
2013-04-02 17:25:00,61.9,51.6,30.15,NE,50,2.0,6.0,69,0.00,,,0.00,Wunderground v.1.15,2013-04-03 00:25:00,
2013-04-02 17:35:00,60.3,50.9,30.15,WNW,297,4.0,7.0,71,0.00,,,0.00,Wunderground v.1.15,2013-04-03 00:35:00,
2013-04-02 17:40:00,59.8,50.8,30.15,WSW,244,4.0,4.0,72,0.00,,,0.00,Wunderground v.1.15,2013-04-03 00:40:00,
2013-04-02 17:50:00,59.6,50.9,30.15,NE,48,2.0,6.0,73,0.00,,,0.00,Wunderground v.1.15,2013-04-03 00:50:00,
2013-04-02 17:55:00,59.3,50.6,30.15,NE,34,2.0,6.0,73,0.00,,,0.00,Wunderground v.1.15,2013-04-03 00:55:00,
2013-04-02 18:00:00,59.0,50.4,30.16,West,276,3.0,6.0,73,0.00,,,0.00,Wunderground v.1.15,2013-04-03 01:00:00,
2013-04-02 18:05:00,58.5,50.2,30.16,ENE,60,2.0,6.0,74,0.00,,,0.00,Wunderground v.1.15,2013-04-03 01:05:00,
2013-04-02 18:15:00,57.6,50.1,30.16,NE,50,3.0,6.0,76,0.00,,,0.00,Wunderground v.1.15,2013-04-03 01:15:00,
2013-04-02 18:25:00,56.6,49.8,30.16,NE,47,3.0,6.0,78,0.00,,,0.00,Wunderground v.1.15,2013-04-03 01:25:00,
2013-04-02 18:30:00,56.3,49.5,30.16,NE,36,3.0,6.0,78,0.00,,,0.00,Wunderground v.1.15,2013-04-03 01:30:00,
2013-04-02 18:40:00,55.6,49.2,30.16,SW,231,2.0,2.0,79,0.00,,,0.00,Wunderground v.1.15,2013-04-03 01:40:00,
2013-04-02 18:45:00,54.8,48.7,30.16,NW,305,2.0,6.0,80,0.00,,,0.00,Wunderground v.1.15,2013-04-03 01:45:00,
2013-04-02 18:50:00,53.7,48.3,30.16,West,264,3.0,6.0,82,0.00,,,0.00,Wunderground v.1.15,2013-04-03 01:50:00,
2013-04-02 18:55:00,53.0,48.3,30.16,ENE,64,2.0,6.0,84,0.00,,,0.00,Wunderground v.1.15,2013-04-03 01:55:00,
2013-04-02 19:05:00,51.9,47.8,30.16,ENE,62,1.0,6.0,86,0.00,,,0.00,Wunderground v.1.15,2013-04-03 02:05:00,
2013-04-02 19:10:00,51.5,47.5,30.16,WNW,283,1.0,6.0,86,0.00,,,0.00,Wunderground v.1.15,2013-04-03 02:10:00,
2013-04-02 19:15:00,50.9,47.2,30.16,ENE,68,1.0,6.0,87,0.00,,,0.00,Wunderground v.1.15,2013-04-03 02:15:00,
2013-04-02 19:20:00,50.5,47.1,30.16,NE,50,1.0,6.0,88,0.00,,,0.00,Wunderground v.1.15,2013-04-03 02:20:00,
2013-04-02 19:30:00,49.8,47.0,30.15,NNE,33,1.0,1.0,90,0.00,,,0.00,Wunderground v.1.15,2013-04-03 02:30:00,
2013-04-02 19:40:00,49.1,46.6,30.16,NE,49,1.0,6.0,91,0.00,,,0.00,Wunderground v.1.15,2013-04-03 02:40:00,
2013-04-02 19:50:00,48.8,46.6,30.16,WNW,285,0.0,6.0,92,0.00,,,0.00,Wunderground v.1.15,2013-04-03 02:50:00,
2013-04-02 19:55:00,48.8,46.6,30.16,WNW,303,0.0,6.0,92,0.00,,,0.00,Wunderground v.1.15,2013-04-03 02:55:00,
2013-04-02 20:00:00,48.8,46.6,30.16,West,261,1.0,1.0,92,0.00,,,0.00,Wunderground v.1.15,2013-04-03 03:00:00,
2013-04-02 20:10:00,48.7,46.8,30.16,NNE,18,0.0,6.0,93,0.00,,,0.00,Wunderground v.1.15,2013-04-03 03:10:00,
2013-04-02 20:15:00,48.6,46.7,30.16,NE,36,1.0,6.0,93,0.00,,,0.00,Wunderground v.1.15,2013-04-03 03:15:00,
2013-04-02 20:25:00,48.5,46.6,30.16,ENE,68,1.0,6.0,93,0.00,,,0.00,Wunderground v.1.15,2013-04-03 03:25:00,
2013-04-02 20:35:00,48.2,46.3,30.16,ENE,60,2.0,6.0,93,0.00,,,0.00,Wunderground v.1.15,2013-04-03 03:35:00,
2013-04-02 20:40:00,48.2,46.6,30.16,NE,37,1.0,6.0,94,0.00,,,0.00,Wunderground v.1.15,2013-04-03 03:40:00,
2013-04-02 20:45:00,48.1,46.5,30.17,NE,37,1.0,6.0,94,0.00,,,0.00,Wunderground v.1.15,2013-04-03 03:45:00,
2013-04-02 20:50:00,48.1,46.5,30.17,NE,37,1.0,1.0,94,0.00,,,0.00,Wunderground v.1.15,2013-04-03 03:50:00,
2013-04-02 21:00:00,48.0,46.4,30.17,NE,34,0.0,6.0,94,0.00,,,0.00,Wunderground v.1.15,2013-04-03 04:00:00,
2013-04-02 21:05:00,47.9,46.3,30.17,NE,34,0.0,6.0,94,0.00,,,0.00,Wunderground v.1.15,2013-04-03 04:05:00,
2013-04-02 21:10:00,47.9,46.3,30.17,NE,34,0.0,6.0,94,0.00,,,0.00,Wunderground v.1.15,2013-04-03 04:10:00,
2013-04-02 21:15:00,47.9,46.5,30.17,NE,34,0.0,6.0,95,0.00,,,0.00,Wunderground v.1.15,2013-04-03 04:15:00,
2013-04-02 21:20:00,47.9,46.5,30.17,NE,45,0.0,6.0,95,0.00,,,0.00,Wunderground v.1.15,2013-04-03 04:20:00,
2013-04-02 21:25:00,47.8,46.4,30.17,NE,40,1.0,6.0,95,0.00,,,0.00,Wunderground v.1.15,2013-04-03 04:25:00,
2013-04-02 21:30:00,47.8,46.4,30.17,NE,39,0.0,6.0,95,0.00,,,0.00,Wunderground v.1.15,2013-04-03 04:30:00,
2013-04-02 21:40:00,47.8,46.4,30.18,NE,39,0.0,6.0,95,0.00,,,0.00,Wunderground v.1.15,2013-04-03 04:40:00,
2013-04-02 21:45:00,47.8,46.4,30.18,NE,55,0.0,6.0,95,0.00,,,0.00,Wunderground v.1.15,2013-04-03 04:45:00,
2013-04-02 21:50:00,47.8,46.4,30.18,NE,53,0.0,6.0,95,0.00,,,0.00,Wunderground v.1.15,2013-04-03 04:50:00,
2013-04-02 21:55:00,47.6,46.2,30.18,NE,53,0.0,6.0,95,0.00,,,0.00,Wunderground v.1.15,2013-04-03 04:55:00,
2013-04-02 22:05:00,47.5,46.1,30.18,NE,53,0.0,6.0,95,0.00,,,0.00,Wunderground v.1.15,2013-04-03 05:05:00,
2013-04-02 22:15:00,47.5,46.4,30.18,NE,53,0.0,6.0,96,0.00,,,0.00,Wunderground v.1.15,2013-04-03 05:15:00,
2013-04-02 22:20:00,47.5,46.4,30.18,NE,53,0.0,6.0,96,0.00,,,0.00,Wunderground v.1.15,2013-04-03 05:20:00,
2013-04-02 22:25:00,47.5,46.4,30.18,NE,53,0.0,6.0,96,0.00,,,0.00,Wunderground v.1.15,2013-04-03 05:25:00,
2013-04-02 22:30:00,47.4,46.3,30.18,NE,53,0.0,6.0,96,0.00,,,0.00,Wunderground v.1.15,2013-04-03 05:30:00,
2013-04-02 22:40:00,47.3,46.2,30.18,NE,50,0.0,6.0,96,0.00,,,0.00,Wunderground v.1.15,2013-04-03 05:40:00,
2013-04-02 22:45:00,47.3,46.2,30.17,NE,50,0.0,6.0,96,0.00,,,0.00,Wunderground v.1.15,2013-04-03 05:45:00,
2013-04-02 22:50:00,47.2,46.1,30.18,NE,50,0.0,6.0,96,0.00,,,0.00,Wunderground v.1.15,2013-04-03 05:50:00,
2013-04-02 23:00:00,47.1,46.0,30.17,NE,50,0.0,6.0,96,0.00,,,0.00,Wunderground v.1.15,2013-04-03 06:00:00,
2013-04-02 23:05:00,47.0,45.9,30.17,NE,47,1.0,6.0,96,0.00,,,0.00,Wunderground v.1.15,2013-04-03 06:05:00,
2013-04-02 23:15:00,47.0,45.9,30.17,NE,47,0.0,6.0,96,0.00,,,0.00,Wunderground v.1.15,2013-04-03 06:15:00,
2013-04-02 23:20:00,46.9,45.8,30.17,NE,47,0.0,6.0,96,0.00,,,0.00,Wunderground v.1.15,2013-04-03 06:20:00,
2013-04-02 23:25:00,46.9,46.1,30.17,NE,47,0.0,6.0,97,0.00,,,0.00,Wunderground v.1.15,2013-04-03 06:25:00,
2013-04-02 23:35:00,46.9,45.8,30.17,NE,47,0.0,6.0,96,0.00,,,0.00,Wunderground v.1.15,2013-04-03 06:35:00,
2013-04-02 23:40:00,46.8,45.7,30.17,NE,47,0.0,6.0,96,0.00,,,0.00,Wunderground v.1.15,2013-04-03 06:40:00,
2013-04-02 23:45:00,46.8,46.0,30.17,NE,47,0.0,6.0,97,0.00,,,0.00,Wunderground v.1.15,2013-04-03 06:45:00,
2013-04-02 23:50:00,46.7,45.9,30.17,NE,47,0.0,6.0,97,0.00,,,0.00,Wunderground v.1.15,2013-04-03 06:50:00,